Temp
6 6 6 6 6 6 6 6 6 6 6 6 6 6 5 5 5 5 5 5 5 5 5 5 4 4 4 4 4 4 4 3 3 2 2 2 2 1 1 1 1 1 1 1 1 1 1 1 1 1 1 1 1 1 1 1 1 1 1 1 1 1 1 1 1 1 1 1 1 1 1 1 1 1 1 1 1 1 1 1 1 1 1 1 1 1
6 6 6 6 6 6 5 5 5 6 6 6 6 6 6 6 6 6 6 6 5 5 5 5 4 4 4 4 4 4 4 3 3 2 2 1 1 1 1 1 1 1 1 1 1 1 1 1 1 0 0 0 0 0 0 0 0 0 0 0 0 0 0 1 1 1 1 1 1 1 1 1 1 1 1 1 1 1 0 0 0 1 1 1 1 1
6 5 5 5 5 5 5 5 5 5 5 5 5 6 6 6 6 6 6 6 6 5 5 5 4 4 4 4 4 4 4 3 2 2 2 1 1 1 1 1 1 1 1 1 1 0 0 0 0 0 0 0 0 0 -0 -0 -0 -0 -0 -0 0 0 0 0 1 1 1 1 1 1 1 1 1 1 1 0 0 0 0 0 0 1 1 1 1 1
5 5 5 5 5 5 5 5 5 5 5 5 5 5 6 6 6 6 6 6 6 5 5 5 4 4 4 4 4 4 3 3 2 2 2 1 1 1 1 1 1 1 1 0 0 0 0 0 -0 -0 -0 -0 -0 -0 -0 -0 -0 -0 -0 -0 -0 0 0 0 0 0 1 1 1 1 0 0 0 0 0 0 0 0 0 0 0 0 0 0 0 1
5 5 5 5 5 5 5 5 5 5 5 5 5 5 5 5 5 6 6 6 6 6 5 5 4 4 4 4 4 3 3 3 2 2 2 1 1 1 1 1 1 1 0 -0 -0 -0 -0 -0 -0 -0 -0 -0 -1 -1 -1 -1 -1 -1 -0 -0 -0 0 0 0 0 0 0 0 0 0 0 0 0 0 0 0 -0 -0 -0 -0 0 0 0 0 0 0
5 5 5 5 5 5 4 4 4 5 5 5 5 5 5 5 5 5 6 6 6 6 5 5 5 4 4 4 3 3 3 2 2 2 2 2 1 1 1 1 1 0 -0 -0 -1 -1 -1 -1 -1 -1 -1 -1 -1 -1 -1 -1 -1 -1 -0 -0 -0 -0 -0 -0 -0 -0 -0 0 0 0 -0 -0 -0 -0 -0 -0 -0 -0 -0 -0 -0 -0 -0 0 0 0
5 5 5 5 5 5 4 4 4 4 4 4 4 4 4 4 5 5 5 5 5 6 6 5 5 4 4 3 3 3 2 2 2 2 2 2 2 1 1 1 0 0 -0 -1 -1 -1 -1 -1 -1 -1 -1 -1 -1 -1 -1 -1 -1 -1 -1 -0 -0 -0 -0 -0 -0 -0 -0 -0 -0 -0 -0 -0 -0 -0 -0 -1 -1 -1 -1 -1 -1 -0 -0 -0 -0 -0
5 5 5 5 5 5 4 4 3 3 3 3 3 3 3 4 4 4 4 4 5 5 5 5 5 5 4 3 2 2 2 2 2 2 2 2 2 1 1 1 0 -0 -1 -1 -1 -1 -1 -1 -1 -1 -2 -2 -2 -2 -2 -1 -1 -1 -1 -1 -1 -1 -1 -1 -1 -0 -0 -0 -0 -0 -0 -1 -1 -1 -1 -1 -1 -1 -1 -1 -1 -1 -1 -1 -0 -0
5 4 4 5 5 4 4 3 3 3 3 3 2 2 2 3 3 4 4 4 3 3 4 4 5 5 4 3 2 2 1 1 2 2 2 1 1 1 1 0 -0 -1 -1 -1 -1 -2 -2 -2 -2 -2 -2 -2 -2 -2 -2 -1 -1 -1 -1 -1 -1 -1 -1 -1 -1 -1 -1 -1 -1 -1 -1 -1 -1 -1 -1 -1 -1 -1 -1 -1 -1 -1 -1 -1 -1 -1
5 4 4 4 4 4 3 3 3 3 3 2 2 2 1 1 2 2 2 2 3 3 3 3 3 4 4 3 2 2 1 1 2 2 1 1 0 0 -0 -0 -1 -1 -1 -1 -2 -2 -2 -2 -2 -2 -2 -2 -2 -2 -2 -2 -1 -1 -1 -1 -1 -1 -1 -1 -1 -1 -1 -1 -1 -1 -1 -1 -1 -1 -1 -1 -1 -1 -1 -1 -1 -1 -1 -1 -1 -1
4 4 4 4 3 3 3 3 2 2 2 3 3 2 2 1 0 -0 -0 0 1 2 2 2 2 2 2 2 2 2 1 1 2 2 2 1 0 -0 -0 -1 -1 -1 -2 -2 -2 -2 -2 -3 -2 -2 -2 -2 -2 -2 -2 -2 -2 -2 -2 -1 -1 -1 -1 -1 -1 -1 -1 -1 -1 -1 -1 -1 -1 -1 -1 -1 -1 -1 -1 -1 -1 -1 -1 -1 -1 -1
4 4 4 3 3 3 3 3 2 2 2 2 2 1 1 1 -0 -1 -1 -1 -1 0 1 1 2 2 2 2 2 1 1 1 1 2 2 1 1 -0 -1 -1 -1 -1 -2 -2 -2 -2 -3 -3 -2 -2 -2 -2 -2 -2 -2 -2 -2 -2 -2 -2 -2 -2 -1 -2 -2 -1 -1 -1 -1 -1 -2 -2 -2 -2 -2 -2 -2 -2 -2 -2 -2 -2 -1 -1 -1 -1
4 3 3 3 3 2 2 2 2 2 1 1 -0 -1 -1 -0 -0 -1 -1 -1 -1 -1 -1 -0 1 2 1 1 1 1 1 1 0 1 2 1 0 -1 -1 -1 -2 -2 -2 -2 -2 -2 -3 -3 -2 -2 -2 -2 -3 -3 -2 -2 -2 -2 -2 -2 -2 -2 -2 -2 -2 -2 -2 -2 -2 -2 -2 -2 -2 -2 -2 -2 -2 -2 -2 -2 -2 -2 -1 -1 -1 -1
4 3 3 3 2 2 1 1 1 0 -0 -1 -1 -1 -1 -0 -0 -1 -1 -1 -1 -1 -1 -1 -0 1 1 1 1 0 0 -0 -0 0 1 0 -0 -1 -2 -2 -2 -2 -2 -2 -2 -3 -3 -3 -3 -2 -2 -3 -3 -3 -3 -2 -2 -2 -2 -2 -2 -2 -2 -2 -2 -2 -2 -2 -2 -2 -2 -2 -2 -2 -2 -2 -2 -2 -2 -2 -2 -2 -2 -1 -1 -1
4 3 3 2 2 1 1 1 0 -0 -1 -1 -1 -0 -0 -0 -0 -1 -2 -2 -2 -2 -2 -1 -1 0 1 1 0 -0 -0 -1 -1 -1 -1 -0 -1 -1 -2 -2 -2 -2 -2 -3 -3 -3 -3 -3 -3 -3 -3 -3 -3 -3 -3 -3 -3 -3 -3 -2 -2 -2 -2 -2 -2 -2 -2 -2 -2 -2 -2 -2 -2 -2 -2 -2 -2 -2 -2 -2 -2 -2 -2 -1 -1 -1
4 3 2 2 1 1 0 0 -0 -0 -0 -0 -0 -0 -0 -1 -1 -1 -2 -3 -3 -3 -3 -2 -1 -0 1 1 0 -0 -1 -2 -2 -3 -3 -2 -1 -1 -2 -2 -2 -2 -3 -3 -3 -3 -3 -3 -3 -3 -3 -3 -3 -3 -3 -3 -3 -3 -3 -3 -2 -2 -2 -2 -2 -2 -2 -2 -2 -2 -2 -2 -2 -2 -2 -2 -2 -2 -2 -2 -2 -2 -2 -1 -2 -2
3 3 2 1 1 1 0 0 -0 -0 -0 -0 -0 -0 -1 -1 -1 -2 -2 -3 -3 -3 -3 -3 -3 -2 -1 -0 0 -0 -1 -2 -3 -3 -3 -3 -2 -2 -2 -2 -3 -3 -3 -3 -3 -3 -3 -3 -3 -3 -3 -4 -4 -3 -3 -3 -3 -3 -3 -3 -3 -3 -3 -3 -3 -3 -3 -3 -2 -2 -2 -2 -2 -2 -2 -2 -2 -2 -2 -2 -2 -2 -2 -2 -2 -2
3 2 2 2 1 1 1 0 -0 -0 -0 -0 -0 -0 -0 -1 -1 -2 -2 -3 -3 -3 -4 -4 -4 -3 -3 -2 -1 -1 -2 -3 -3 -4 -4 -3 -2 -2 -2 -3 -3 -3 -3 -3 -3 -3 -4 -3 -3 -4 -4 -4 -4 -3 -3 -3 -3 -3 -3 -3 -3 -3 -3 -3 -3 -3 -3 -3 -3 -3 -3 -3 -2 -2 -2 -2 -2 -2 -2 -2 -2 -2 -2 -2 -2 -3
3 2 2 2 1 1 1 0 -0 -0 -0 -0 -0 -1 -1 -1 -1 -2 -2 -3 -3 -4 -4 -4 -3 -3 -3 -3 -2 -1 -2 -3 -4 -4 -4 -3 -3 -2 -2 -3 -3 -3 -3 -3 -3 -4 -4 -4 -4 -4 -4 -4 -4 -3 -3 -3 -3 -3 -3 -3 -3 -3 -3 -3 -3 -3 -3 -3 -3 -3 -3 -3 -3 -3 -3 -3 -3 -3 -2 -2 -2 -2 -2 -2 -3 -3
3 2 2 2 1 1 1 0 -0 -0 -0 -0 -1 -1 -1 -1 -2 -2 -2 -3 -3 -3 -4 -4 -4 -3 -3 -3 -2 -2 -3 -3 -4 -4 -4 -3 -3 -3 -3 -3 -4 -4 -4 -4 -4 -4 -4 -4 -4 -4 -4 -4 -4 -4 -4 -4 -3 -3 -3 -3 -3 -3 -3 -3 -3 -3 -3 -3 -3 -3 -3 -3 -3 -3 -3 -3 -3 -3 -3 -3 -2 -2 -2 -2 -3 -3
2 2 2 1 1 1 0 0 0 -0 -0 -0 -1 -1 -1 -2 -2 -2 -2 -3 -3 -3 -4 -4 -4 -3 -3 -3 -2 -2 -3 -3 -4 -4 -4 -3 -3 -3 -3 -3 -4 -4 -4 -4 -4 -4 -4 -4 -4 -4 -4 -4 -4 -4 -4 -4 -4 -3 -3 -3 -3 -3 -3 -3 -3 -3 -3 -3 -3 -3 -3 -3 -3 -3 -3 -3 -3 -3 -3 -3 -2 -2 -2 -3 -3 -3
2 2 1 1 1 1 0 0 0 -0 -1 -1 -1 -1 -1 -2 -2 -2 -2 -2 -3 -3 -4 -4 -3 -3 -3 -2 -2 -2 -3 -3 -4 -4 -4 -4 -3 -3 -3 -4 -4 -4 -4 -4 -4 -4 -4 -4 -4 -4 -4 -4 -4 -4 -4 -4 -4 -4 -3 -3 -3 -4 -4 -3 -3 -3 -3 -3 -3 -3 -3 -3 -3 -3 -3 -3 -3 -3 -3 -3 -2 -2 -3 -3 -3 -3
2 1 1 1 1 1 0 0 -0 -1 -1 -1 -1 -1 -2 -2 -2 -2 -2 -2 -2 -3 -3 -3 -3 -2 -2 -2 -2 -3 -3 -3 -4 -4 -4 -4 -4 -4 -4 -4 -4 -4 -4 -4 -4 -4 -4 -4 -4 -4 -4 -4 -4 -4 -4 -4 -4 -4 -4 -4 -4 -4 -4 -4 -4 -4 -3 -3 -3 -3 -3 -3 -3 -3 -3 -3 -3 -3 -3 -3 -3 -3 -3 -3 -3 -3
2 1 1 1 1 0 0 -0 -1 -1 -1 -1 -1 -2 -2 -2 -2 -2 -2 -2 -2 -2 -3 -2 -2 -2 -2 -2 -2 -2 -3 -3 -4 -4 -4 -4 -4 -4 -4 -4 -4 -5 -5 -5 -5 -5 -5 -4 -4 -4 -4 -4 -4 -4 -4 -4 -4 -4 -4 -4 -4 -4 -4 -4 -4 -4 -4 -4 -3 -3 -3 -3 -3 -3 -3 -3 -3 -3 -3 -3 -3 -3 -3 -3 -4 -4
2 1 1 1 0 -0 -0 -1 -1 -1 -1 -1 -2 -2 -2 -2 -2 -2 -2 -2 -2 -2 -2 -3 -3 -3 -3 -3 -3 -3 -3 -3 -4 -4 -4 -4 -4 -4 -4 -4 -5 -5 -5 -5 -5 -5 -5 -4 -4 -4 -4 -4 -4 -4 -4 -4 -4 -4 -4 -4 -4 -4 -4 -4 -4 -4 -4 -4 -4 -3 -3 -3 -3 -3 -3 -3 -3 -3 -3 -3 -3 -3 -3 -3 -4 -4
1 1 1 0 -0 -0 -1 -1 -1 -1 -1 -1 -1 -2 -2 -2 -2 -2 -1 -2 -2 -3 -3 -4 -4 -3 -3 -3 -3 -3 -3 -3 -4 -4 -4 -5 -5 -4 -4 -4 -5 -5 -5 -5 -5 -5 -5 -4 -4 -4 -4 -4 -4 -4 -4 -4 -4 -4 -4 -4 -4 -4 -4 -4 -4 -4 -4 -4 -4 -4 -3 -3 -3 -3 -3 -3 -3 -3 -3 -3 -3 -3 -3 -4 -4 -4
1 1 1 0 0 0 0 0 0 -0 -1 -1 -1 -2 -2 -2 -1 -1 -2 -2 -3 -4 -4 -4 -4 -4 -4 -4 -3 -3 -3 -3 -4 -4 -4 -5 -5 -5 -4 -5 -5 -5 -5 -5 -5 -5 -4 -4 -4 -4 -4 -4 -4 -4 -4 -4 -4 -5 -5 -5 -5 -5 -4 -4 -4 -4 -4 -4 -4 -4 -4 -4 -4 -4 -3 -3 -3 -3 -3 -3 -3 -3 -3 -4 -4 -4
1 1 1 1 1 1 1 0 0 -0 -0 -1 -1 -1 -1 -1 -2 -2 -3 -3 -3 -4 -4 -5 -5 -5 -4 -4 -4 -4 -3 -3 -4 -4 -4 -5 -5 -5 -5 -5 -5 -5 -5 -5 -5 -5 -4 -4 -4 -4 -4 -4 -4 -4 -4 -5 -5 -5 -5 -5 -5 -5 -5 -4 -4 -4 -4 -4 -4 -4 -4 -4 -4 -4 -4 -4 -3 -3 -3 -3 -3 -3 -4 -4 -4 -4
2 1 1 1 1 1 1 0 0 -0 -0 -1 -1 -1 -1 -1 -2 -3 -3 -3 -4 -4 -4 -5 -5 -5 -5 -5 -5 -4 -3 -3 -3 -4 -5 -5 -5 -5 -5 -5 -5 -5 -6 -5 -5 -4 -4 -4 -4 -4 -4 -4 -4 -4 -4 -5 -5 -5 -5 -5 -5 -5 -5 -5 -4 -4 -4 -4 -4 -4 -4 -4 -4 -4 -4 -4 -4 -3 -3 -3 -3 -3 -4 -4 -4 -4
2 1 1 1 1 1 1 0 0 -0 -0 -0 -0 -1 -1 -2 -2 -3 -3 -3 -4 -4 -4 -5 -5 -5 -6 -6 -6 -5 -4 -3 -3 -4 -5 -5 -5 -5 -5 -5 -5 -5 -6 -6 -5 -4 -4 -4 -4 -4 -4 -4 -4 -4 -4 -5 -5 -5 -5 -5 -5 -5 -5 -5 -5 -4 -4 -4 -4 -4 -4 -4 -4 -4 -4 -4 -4 -4 -3 -3 -3 -3 -4 -4 -4 -4
2 2 2 1 1 1 1 0 0 -0 -0 -0 -0 -1 -1 -2 -2 -3 -3 -3 -3 -4 -4 -5 -5 -5 -6 -6 -6 -6 -5 -3 -3 -4 -5 -5 -5 -5 -5 -5 -6 -6 -6 -6 -5 -5 -4 -4 -4 -4 -4 -4 -4 -4 -5 -5 -5 -5 -5 -5 -5 -5 -5 -5 -5 -5 -4 -4 -4 -4 -4 -4 -4 -4 -4 -4 -4 -4 -4 -3 -3 -3 -4 -4 -4 -4
2 2 2 1 1 1 1 1 0 0 -0 -0 -0 -1 -1 -2 -2 -3 -3 -3 -3 -4 -4 -5 -5 -5 -6 -6 -6 -6 -5 -4 -4 -5 -5 -5 -5 -6 -6 -6 -6 -6 -6 -6 -6 -5 -5 -4 -4 -4 -5 -5 -5 -5 -5 -5 -5 -5 -5 -5 -5 -5 -5 -5 -5 -5 -4 -4 -4 -4 -4 -4 -4 -4 -4 -4 -4 -4 -4 -3 -3 -3 -4 -4 -4 -4
2 2 2 2 2 1 1 1 1 0 0 0 -0 -1 -1 -2 -2 -3 -3 -3 -4 -4 -4 -4 -5 -5 -5 -6 -6 -6 -5 -5 -5 -5 -5 -5 -6 -6 -6 -6 -6 -6 -6 -6 -6 -6 -5 -5 -5 -5 -5 -5 -5 -5 -5 -5 -5 -5 -5 -5 -5 -5 -5 -5 -5 -5 -5 -4 -4 -4 -4 -4 -4 -4 -4 -4 -4 -4 -4 -4 -3 -4 -4 -4 -4 -4
2 2 2 2 2 2 2 1 1 1 0 -0 -1 -1 -1 -2 -2 -3 -3 -3 -4 -4 -4 -4 -5 -5 -5 -6 -6 -6 -5 -5 -5 -5 -5 -6 -6 -6 -6 -6 -6 -6 -6 -6 -6 -6 -5 -5 -5 -5 -5 -5 -5 -5 -5 -5 -5 -5 -5 -5 -5 -5 -5 -5 -5 -5 -5 -4 -4 -4 -4 -4 -4 -4 -4 -4 -4 -4 -4 -4 -4 -4 -4 -4 -4 -4
2 2 3 3 3 2 2 2 1 1 0 -0 -1 -1 -1 -2 -2 -2 -3 -3 -4 -4 -4 -5 -5 -5 -5 -6 -6 -6 -5 -5 -5 -5 -5 -6 -6 -6 -6 -6 -6 -6 -6 -6 -6 -6 -6 -6 -6 -5 -5 -5 -5 -5 -5 -5 -5 -5 -5 -5 -5 -5 -5 -5 -5 -5 -5 -5 -5 -5 -5 -5 -5 -5 -5 -4 -4 -4 -4 -4 -4 -4 -4 -4 -4 -4
3 2 2 2 2 2 1 1 0 0 -0 -1 -1 -1 -2 -2 -2 -3 -3 -3 -4 -4 -4 -5 -5 -5 -5 -5 -6 -6 -5 -5 -5 -5 -5 -6 -6 -6 -6 -6 -6 -7 -7 -6 -6 -6 -6 -6 -6 -6 -6 -6 -5 -5 -5 -5 -5 -5 -5 -5 -5 -5 -4 -4 -5 -5 -5 -5 -5 -5 -5 -5 -5 -5 -5 -4 -4 -4 -4 -4 -4 -4 -4 -4 -4 -4
2 2 1 1 1 0 -0 -0 -1 -1 -1 -1 -1 -1 -2 -2 -2 -3 -3 -3 -4 -4 -4 -5 -5 -5 -5 -5 -5 -5 -6 -6 -5 -5 -6 -6 -6 -6 -6 -6 -6 -7 -7 -7 -7 -7 -7 -7 -6 -6 -6 -6 -6 -5 -5 -5 -5 -5 -5 -5 -5 -4 -4 -4 -4 -5 -5 -5 -5 -5 -4 -4 -5 -5 -4 -4 -4 -4 -4 -4 -4 -4 -4 -4 -4 -4
1 0 0 0 -0 -0 -1 -1 -1 -1 -1 -2 -2 -2 -2 -3 -3 -3 -3 -4 -4 -4 -4 -4 -5 -5 -5 -5 -5 -5 -6 -6 -6 -6 -6 -6 -6 -6 -6 -6 -7 -7 -7 -7 -7 -7 -7 -7 -7 -7 -6 -6 -6 -6 -6 -5 -5 -5 -5 -5 -5 -4 -4 -4 -4 -4 -4 -5 -5 -5 -4 -4 -4 -4 -4 -4 -4 -4 -4 -4 -4 -4 -4 -4 -4 -4
-0 -1 -1 -1 -1 -1 -2 -2 -2 -2 -2 -2 -2 -2 -3 -3 -3 -3 -4 -4 -4 -4 -4 -5 -5 -5 -5 -5 -5 -5 -6 -6 -6 -6 -6 -6 -6 -6 -6 -6 -7 -7 -7 -7 -7 -7 -7 -7 -7 -7 -7 -7 -6 -6 -6 -6 -5 -5 -5 -5 -4 -4 -4 -4 -4 -4 -4 -4 -5 -5 -4 -4 -4 -4 -4 -4 -4 -4 -4 -4 -4 -4 -4 -4 -4 -4
-1 -1 -1 -1 -1 -2 -2 -2 -1 -1 -1 -2 -2 -2 -3 -3 -3 -3 -4 -4 -4 -5 -5 -5 -5 -5 -5 -5 -6 -6 -6 -6 -6 -6 -6 -6 -6 -6 -6 -6 -7 -7 -7 -7 -7 -7 -7 -7 -7 -7 -7 -7 -7 -7 -6 -6 -6 -5 -5 -5 -4 -4 -4 -4 -4 -4 -4 -4 -4 -4 -4 -4 -4 -4 -4 -4 -4 -4 -4 -4 -4 -4 -4 -4 -4 -5
-1 -1 -2 -1 -1 -1 -1 -1 -1 -1 -1 -1 -2 -2 -3 -3 -4 -4 -4 -4 -5 -5 -5 -5 -5 -5 -5 -5 -6 -6 -6 -6 -6 -6 -6 -6 -6 -6 -6 -6 -6 -6 -6 -6 -6 -6 -7 -7 -7 -7 -7 -7 -7 -7 -6 -6 -5 -5 -5 -5 -5 -4 -4 -4 -4 -4 -4 -4 -4 -4 -4 -4 -4 -4 -4 -4 -4 -4 -4 -4 -4 -4 -4 -4 -4 -4
-2 -2 -2 -1 -1 -0 -0 -0 -0 -1 -1 -1 -2 -3 -4 -4 -5 -5 -6 -6 -6 -6 -6 -6 -6 -6 -5 -5 -6 -6 -6 -6 -6 -6 -6 -6 -6 -6 -6 -6 -6 -6 -6 -6 -6 -6 -6 -6 -6 -6 -6 -6 -6 -7 -6 -6 -5 -5 -5 -5 -5 -4 -4 -4 -4 -4 -4 -4 -4 -4 -4 -4 -4 -4 -4 -4 -4 -4 -4 -3 -3 -3 -4 -4 -4 -4
-2 -2 -2 -1 -1 -0 -0 0 -0 -0 -1 -2 -3 -4 -4 -5 -5 -6 -6 -6 -7 -7 -7 -7 -7 -7 -7 -6 -6 -6 -6 -6 -6 -6 -6 -6 -6 -6 -6 -6 -6 -6 -6 -6 -5 -5 -5 -5 -5 -5 -5 -5 -6 -6 -6 -5 -5 -5 -4 -4 -4 -4 -4 -4 -4 -4 -4 -4 -4 -4 -4 -4 -4 -4 -4 -4 -4 -4 -3 -3 -3 -3 -4 -4 -4 -4
-2 -2 -1 -1 -1 -1 -0 -0 -1 -1 -2 -3 -4 -4 -5 -5 -6 -6 -7 -7 -7 -7 -7 -7 -7 -7 -7 -7 -7 -6 -6 -6 -6 -6 -6 -6 -6 -6 -6 -5 -5 -5 -5 -5 -5 -5 -5 -4 -4 -4 -4 -5 -5 -5 -5 -5 -5 -4 -4 -4 -4 -4 -4 -4 -4 -4 -4 -4 -3 -3 -3 -3 -3 -4 -4 -4 -4 -4 -3 -3 -3 -3 -3 -3 -3 -3
-2 -2 -1 -1 -1 -1 -1 -1 -1 -2 -2 -3 -4 -5 -5 -5 -6 -6 -7 -7 -7 -7 -7 -7 -7 -7 -7 -7 -7 -7 -6 -6 -6 -6 -6 -6 -6 -5 -5 -5 -5 -5 -5 -5 -5 -5 -5 -4 -4 -4 -4 -4 -4 -4 -5 -5 -4 -4 -4 -4 -4 -4 -4 -4 -4 -4 -4 -3 -3 -3 -3 -3 -3 -4 -4 -4 -4 -4 -3 -3 -3 -3 -3 -3 -3 -3
-2 -2 -2 -2 -2 -2 -2 -2 -2 -2 -3 -4 -5 -5 -6 -6 -6 -7 -7 -7 -8 -8 -8 -8 -8 -8 -8 -7 -7 -7 -7 -7 -6 -6 -6 -6 -5 -5 -5 -5 -4 -4 -4 -4 -4 -4 -4 -4 -4 -4 -4 -4 -4 -4 -4 -4 -4 -4 -4 -4 -4 -4 -4 -4 -3 -3 -3 -3 -3 -3 -3 -3 -3 -4 -4 -4 -4 -4 -3 -3 -3 -3 -3 -3 -3 -3
-2 -2 -3 -3 -3 -3 -3 -2 -2 -3 -4 -4 -5 -5 -6 -6 -6 -7 -7 -8 -8 -8 -8 -8 -8 -8 -8 -8 -7 -7 -7 -7 -7 -7 -6 -6 -6 -5 -5 -4 -4 -4 -4 -3 -3 -3 -3 -3 -3 -3 -4 -4 -4 -4 -4 -4 -4 -4 -4 -4 -4 -4 -4 -3 -3 -3 -3 -3 -3 -3 -3 -3 -3 -3 -4 -4 -4 -3 -3 -3 -2 -3 -3 -3 -3 -3
-3 -3 -3 -3 -3 -3 -3 -3 -3 -4 -4 -5 -5 -6 -6 -6 -7 -7 -7 -8 -8 -8 -8 -8 -8 -8 -8 -8 -7 -7 -7 -7 -7 -7 -7 -6 -6 -5 -5 -5 -4 -4 -3 -3 -3 -3 -3 -3 -3 -3 -3 -4 -4 -4 -4 -4 -4 -4 -4 -4 -4 -4 -3 -3 -3 -3 -3 -3 -3 -3 -3 -3 -3 -3 -4 -3 -3 -3 -3 -2 -2 -2 -2 -2 -2 -2
-3 -3 -4 -3 -3 -3 -3 -3 -3 -4 -5 -5 -6 -6 -6 -7 -7 -7 -8 -8 -8 -8 -8 -8 -8 -8 -8 -8 -7 -7 -7 -7 -7 -7 -7 -6 -6 -6 -6 -6 -5 -4 -3 -3 -2 -2 -2 -2 -3 -3 -3 -3 -3 -4 -4 -4 -4 -4 -4 -4 -4 -3 -3 -3 -3 -3 -3 -3 -3 -3 -3 -3 -3 -3 -3 -3 -3 -3 -3 -2 -2 -2 -2 -2 -2 -1
-3 -3 -4 -3 -3 -3 -3 -3 -4 -5 -5 -6 -6 -7 -7 -7 -7 -7 -8 -8 -8 -8 -8 -8 -8 -8 -8 -8 -7 -7 -7 -7 -7 -6 -6 -6 -6 -6 -6 -6 -6 -6 -5 -4 -3 -3 -3 -2 -2 -2 -2 -3 -3 -3 -4 -4 -4 -4 -4 -3 -3 -3 -3 -3 -3 -3 -3 -3 -3 -3 -3 -3 -3 -4 -4 -3 -3 -3 -2 -2 -2 -2 -2 -1 -1 -1
-3 -3 -3 -3 -3 -3 -3 -3 -4 -5 -6 -6 -7 -7 -7 -7 -7 -8 -8 -8 -8 -8 -8 -8 -8 -7 -7 -8 -7 -7 -7 -7 -7 -6 -6 -6 -6 -6 -6 -6 -6 -6 -5 -5 -4 -4 -4 -3 -3 -2 -2 -2 -2 -3 -3 -4 -4 -4 -3 -3 -3 -3 -3 -3 -3 -3 -3 -3 -3 -3 -3 -3 -3 -3 -3 -3 -3 -3 -3 -2 -2 -2 -2 -1 -1 -1
Height
792 792 792 792 792 791 791 791 791 791 791 790 790 790 790 789 789 788 787 786 785 785 784 782 781 780 779 778 777 776 776 775 774 774 773 772 771 770 769 768 767 766 765 764 763 762 761 760 759 758 756 755 754 752 751 749 748 747 745 744 743 741 740 739 738 736 735 733 732 730 729 727 726 725 723 722 720 719 718 717 716 715 713 712 710 708
791 791 791 791 791 791 791 790 790 790 790 790 790 789 789 789 788 787 787 786 785 784 783 782 780 779 778 777 777 776 775 775 774 773 772 771 770 769 768 767 766 765 764 763 762 761 760 759 758 757 755 754 753 751 750 748 747 746 744 743 742 741 739 738 737 735 734 732 731 729 728 726 725 723 722 721 720 718 717 716 715 713 712 710 709 707
791 791 791 791 791 791 790 790 790 790 790 790 789 789 788 788 787 786 786 785 785 784 782 781 780 779 778 777 776 775 775 774 773 772 771 770 769 768 767 766 765 764 763 763 762 761 760 758 757 756 755 753 752 750 749 747 746 745 744 742 741 740 739 737 736 734 733 731 730 728 727 725 724 722 721 720 719 717 716 715 713 712 710 709 707 706
790 790 790 790 790 790 790 790 790 790 790 789 789 788 788 787 786 786 785 784 784 783 782 780 779 778 777 776 775 775 774 773 772 771 770 769 768 767 766 765 765 764 763 762 761 760 759 758 756 755 754 752 750 749 748 746 745 744 743 742 740 739 738 736 735 733 731 730 729 727 725 724 723 721 720 719 717 716 715 714 712 711 709 708 706 705
790 790 790 790 790 790 790 790 790 790 789 789 788 788 787 786 786 785 785 784 783 782 780 780 778 777 776 775 775 774 773 773 772 771 770 769 767 766 765 765 764 763 762 761 760 759 758 757 755 754 753 751 750 748 747 746 745 743 742 741 740 738 737 735 734 732 730 729 727 726 725 723 722 720 719 718 716 715 714 713 711 710 708 707 705 703
790 790 790 790 790 790 790 790 790 789 789 788 788 787 786 786 785 784 783 782 781 780 780 779 778 777 776 775 774 773 773 772 771 770 769 768 767 766 765 764 763 762 761 760 760 758 757 756 755 753 751 750 749 747 746 745 744 743 741 740 739 737 736 735 733 731 730 728 726 725 724 722 721 720 719 717 716 714 713 712 710 709 707 705 704 702
790 790 790 790 790 790 790 790 789 789 788 787 787 786 786 785 784 783 783 781 780 779 778 778 777 776 775 774 774 773 772 771 770 769 768 767 766 765 764 763 762 761 760 760 759 758 756 755 754 752 750 749 748 746 745 744 743 742 741 740 738 737 735 734 732 731 729 727 726 724 723 722 720 719 718 716 715 714 712 711 710 708 706 705 703 701
790 790 790 790 790 790 790 790 789 789 788 787 786 785 785 784 783 782 781 781 780 779 777 776 776 775 774 774 773 772 771 770 769 768 767 766 765 764 763 763 762 761 760 759 758 757 755 754 753 751 750 748 747 746 745 744 743 741 740 739 737 736 734 733 731 730 728 727 725 724 722 721 720 719 717 716 715 713 712 710 709 707 705 704 702 701
789 790 790 790 790 790 790 789 789 788 788 787 786 785 784 783 781 780 780 780 779 778 777 775 774 774 773 773 772 771 770 769 769 768 767 765 765 764 763 762 761 760 759 758 757 756 755 753 751 750 749 747 746 745 744 743 742 741 740 738 737 735 734 732 731 729 728 726 725 723 722 720 719 718 716 715 714 712 711 710 708 706 705 703 702 700
789 789 789 789 789 789 789 789 789 788 787 787 786 785 785 783 781 779 778 778 777 777 776 775 774 773 772 772 771 770 769 769 768 768 767 765 764 763 762 761 760 759 758 757 756 755 753 752 750 749 748 746 745 744 743 742 741 740 739 737 736 735 733 731 730 729 727 726 724 723 721 720 719 717 716 715 713 712 710 709 707 705 704 702 701 699
789 789 789 789 789 789 789 789 788 788 787 787 786 785 785 783 782 780 778 777 776 775 775 775 774 773 772 771 770 769 768 767 766 766 766 765 764 763 761 760 760 759 758 756 755 754 752 751 750 748 747 745 745 744 743 742 741 740 738 737 735 734 732 731 730 728 727 725 724 722 721 720 718 717 715 714 713 711 709 708 706 705 703 701 700 698
789 789 789 789 789 789 789 788 788 787 787 786 785 784 784 783 782 781 780 779 777 776 775 774 774 774 772 771 770 769 767 766 765 765 764 764 763 761 760 759 758 758 756 755 754 753 751 750 748 747 746 745 744 743 742 741 740 739 737 736 735 733 732 730 729 728 726 725 723 722 720 719 718 716 715 713 712 710 708 707 705 704 702 700 699 697
789 789 789 789 789 789 788 788 788 787 786 786 785 785 784 783 783 782 781 780 779 778 776 775 774 773 772 771 770 769 767 765 764 764 763 762 761 760 759 758 757 756 755 754 753 751 750 749 747 746 745 744 743 743 742 741 740 738 737 735 734 733 731 730 729 727 726 725 723 722 720 719 717 716 714 713 711 709 708 706 705 703 701 700 698 696
789 789 789 789 788 788 788 788 787 787 787 786 786 785 785 784 783 782 781 780 779 778 777 775 774 773 772 771 770 769 768 766 764 763 762 762 761 760 759 758 757 756 755 753 752 751 750 748 747 745 745 744 743 742 741 740 739 738 736 735 734 732 731 730 728 727 725 724 723 721 720 718 717 715 714 712 710 709 707 705 704 702 701 699 697 695
789 789 789 788 788 788 788 788 788 787 787 787 786 785 785 784 783 782 781 780 779 777 776 775 773 772 772 771 770 769 768 766 764 763 762 761 761 760 759 758 757 755 755 753 752 750 749 748 746 745 744 743 743 742 741 740 739 737 736 735 733 732 731 729 728 726 725 724 722 721 719 718 716 715 713 711 709 708 706 705 704 702 700 698 696 695
789 789 788 788 788 788 788 788 788 788 787 787 786 785 785 784 783 782 781 780 779 778 776 775 772 771 771 771 770 769 768 766 765 764 762 761 761 760 760 758 756 755 754 753 751 750 749 747 746 745 744 743 743 742 741 740 739 737 736 735 733 732 730 729 728 726 725 723 722 720 719 717 715 714 712 710 709 707 706 705 703 701 699 698 696 695
789 789 789 789 789 789 789 788 788 788 787 787 786 785 785 784 783 782 782 781 780 779 778 777 775 773 771 770 770 769 768 766 765 764 763 761 761 760 760 758 757 755 754 753 751 750 749 747 746 745 744 743 743 742 741 740 738 737 735 734 733 731 730 729 727 726 724 723 721 720 718 716 715 713 712 710 709 707 705 704 703 700 699 697 695 694
789 789 789 789 789 789 788 788 788 787 787 786 785 785 784 784 783 783 782 781 780 780 779 778 777 777 775 772 770 769 769 767 766 764 763 762 761 760 760 758 757 755 754 752 751 750 749 747 746 745 744 743 743 742 741 739 738 737 735 734 732 731 730 728 727 725 724 722 720 719 718 716 714 713 711 710 708 707 705 704 702 700 698 696 695 694
789 789 789 789 789 789 788 788 787 787 786 785 785 784 784 783 783 782 782 781 781 780 779 778 777 777 775 773 771 770 769 768 766 765 763 762 760 760 759 758 756 755 754 752 751 750 749 747 746 745 744 743 742 742 740 739 738 736 735 734 732 731 729 728 726 725 723 722 720 719 717 715 714 712 711 710 708 707 705 703 701 700 698 696 695 694
789 789 789 789 789 788 788 787 787 786 786 785 785 784 783 783 782 782 781 781 780 780 779 778 777 776 775 773 771 769 769 767 766 765 763 761 760 759 759 757 756 754 753 752 751 750 748 747 746 745 744 743 742 741 740 739 737 736 735 733 732 730 729 727 726 725 723 721 720 718 717 715 714 712 710 709 708 706 705 703 701 699 697 696 695 694
789 789 789 789 788 788 788 787 787 786 785 785 784 784 783 782 782 781 781 780 780 779 778 777 776 775 774 772 770 769 768 767 766 765 763 761 760 759 758 757 755 754 753 752 750 749 748 746 745 744 743 742 742 741 740 738 737 736 734 733 731 730 729 727 726 724 723 721 720 718 716 715 713 712 710 709 707 706 705 703 701 699 697 696 695 694
789 789 789 789 789 788 788 787 787 786 785 785 784 784 783 782 782 781 780 780 779 778 778 777 776 775 773 772 770 769 769 768 766 765 763 761 759 758 758 757 755 754 753 751 750 749 747 746 745 744 743 742 741 740 739 738 737 735 734 733 731 730 728 727 725 724 722 721 719 718 716 715 713 711 710 709 707 705 704 702 701 699 697 696 695 694
790 790 789 789 789 788 788 787 787 786 786 785 785 784 784 783 783 782 781 780 779 778 777 776 775 773 772 771 770 769 768 768 767 765 764 762 760 758 757 756 755 754 753 751 750 748 746 745 744 743 743 742 741 740 739 738 736 735 734 732 731 730 728 726 725 724 722 721 719 717 716 714 713 711 710 708 707 705 704 702 700 699 697 696 695 694
790 790 790 789 789 789 788 788 787 787 786 786 785 785 784 783 783 782 781 780 779 778 776 775 773 772 771 770 770 769 768 767 766 765 764 763 761 759 758 756 755 754 752 751 749 748 746 745 744 743 742 742 741 740 739 737 736 735 733 732 730 729 728 726 725 724 722 720 719 717 715 714 712 711 710 708 706 705 703 702 700 699 697 696 695 694
790 790 790 790 789 789 789 788 788 788 787 786 785 785 784 783 782 782 781 780 779 777 775 774 772 771 770 770 769 768 768 767 766 765 765 763 761 759 758 757 756 754 752 750 749 747 745 744 743 743 742 741 740 739 738 737 735 734 733 732 730 729 727 726 725 723 722 720 718 717 715 714 712 710 709 708 706 705 703 701 700 698 697 696 695 694
790 790 790 790 790 790 790 790 789 788 787 786 785 784 783 783 782 781 781 780 778 776 775 773 772 771 770 769 769 768 767 766 766 765 764 763 761 759 758 757 756 754 752 750 748 746 745 744 743 742 742 741 740 739 738 736 735 734 733 731 730 729 727 726 724 723 721 720 718 716 715 713 712 710 709 707 706 704 703 701 700 698 696 695 694 693
791 790 790 790 790 790 789 789 788 788 787 787 786 785 783 782 781 780 780 779 778 776 775 774 773 771 770 769 768 767 767 766 765 765 764 763 761 759 758 757 755 754 752 750 748 746 745 744 743 742 741 740 739 738 737 736 735 734 732 731 729 728 727 725 724 723 721 720 718 716 715 713 711 710 708 707 705 704 702 701 699 698 696 695 694 692
791 790 790 790 790 789 789 788 788 787 787 786 785 785 783 782 781 780 779 779 777 776 776 775 774 773 771 770 769 767 766 766 765 765 764 762 761 760 758 757 755 754 752 750 747 746 745 744 743 742 741 740 739 738 737 735 734 733 731 730 729 728 726 725 724 722 721 719 717 716 714 713 711 710 708 706 705 704 702 700 699 697 696 694 693 691
791 790 790 790 789 789 788 788 787 787 786 785 785 784 783 782 781 781 780 779 778 777 776 775 775 774 773 771 769 767 766 766 765 765 763 762 761 760 758 757 756 754 752 750 747 745 744 744 743 742 741 740 739 737 736 735 734 732 731 730 728 727 726 725 723 722 720 719 717 715 714 712 711 709 708 706 705 703 702 700 698 697 695 694 692 691
791 790 790 789 789 788 788 787 787 786 786 785 784 783 783 782 781 781 780 779 778 777 776 775 775 774 773 771 769 767 766 765 765 765 763 762 761 759 758 757 756 755 753 751 748 745 743 743 742 742 741 740 738 737 736 735 733 732 730 729 728 726 725 724 723 721 720 718 717 715 714 712 710 709 707 706 705 703 701 700 698 697 695 694 692 691
791 790 790 789 789 788 788 787 787 786 786 785 784 783 783 782 781 781 780 779 778 777 776 775 775 774 774 773 771 769 767 765 765 765 764 763 761 760 759 757 756 755 755 754 751 748 745 742 741 741 740 739 738 737 736 735 733 732 730 729 727 726 725 724 722 721 719 718 716 715 713 711 710 709 707 706 704 703 701 700 698 697 695 693 692 690
791 791 790 789 789 788 788 787 787 786 785 785 784 784 783 782 781 781 780 779 778 777 776 775 775 774 774 774 773 772 769 767 766 765 765 763 762 760 759 758 757 756 755 755 755 753 749 745 742 741 740 739 738 737 735 734 733 732 730 729 727 725 724 723 721 720 718 717 715 714 713 711 710 708 707 705 704 703 701 700 698 697 695 693 692 691
792 791 790 790 789 789 788 787 787 786 785 785 784 784 783 783 782 781 780 780 779 778 776 775 775 774 773 773 772 771 769 768 766 765 765 764 762 760 759 758 757 756 755 755 754 754 752 749 745 743 740 739 738 736 735 734 733 731 730 729 727 725 724 723 721 720 718 716 715 714 712 710 709 708 706 705 704 702 701 700 698 697 695 694 692 691
792 792 791 790 789 789 788 787 787 786 785 785 785 784 783 783 782 781 780 780 779 778 777 776 775 774 773 772 771 770 769 768 767 766 765 764 762 760 759 758 757 756 755 754 753 752 751 750 747 745 742 740 738 736 735 734 733 731 730 729 727 725 724 722 721 720 718 716 715 713 712 710 709 707 706 705 703 702 701 700 698 697 696 694 693 691
792 791 790 789 789 788 787 787 787 786 786 785 785 784 784 783 782 781 780 780 779 778 777 776 775 774 773 772 771 770 768 767 767 766 765 763 762 761 760 759 758 756 755 754 753 752 750 749 748 746 744 741 738 736 735 734 732 731 730 728 727 725 724 722 721 719 718 716 715 713 711 710 709 707 706 705 703 702 701 700 698 697 696 695 693 692
791 791 790 789 788 787 787 787 786 786 785 785 785 785 784 783 782 781 780 780 779 778 777 775 775 774 773 772 771 770 769 768 767 766 765 764 762 761 760 759 758 757 756 755 754 752 751 750 748 746 745 742 739 736 734 733 731 730 729 728 726 725 724 723 721 720 718 716 715 713 712 710 709 707 706 705 703 702 701 700 698 697 696 695 694 692
791 790 790 789 788 788 787 787 786 786 785 785 785 785 784 783 782 781 780 779 778 777 776 775 774 773 773 772 771 770 769 768 767 766 765 764 762 761 760 760 759 758 757 755 754 753 752 750 749 747 745 744 741 739 735 733 731 730 728 727 726 725 724 722 721 720 718 717 715 714 712 710 709 707 706 705 703 702 700 699 698 697 696 695 694 692
791 790 790 789 789 788 788 787 787 786 786 786 786 785 784 784 782 781 780 779 778 776 775 774 773 773 772 771 771 770 769 768 767 766 765 764 762 761 761 760 759 758 757 756 755 754 753 751 750 747 745 744 742 740 738 735 733 730 729 727 726 725 724 722 721 720 718 717 715 713 712 710 709 707 706 704 703 701 700 699 697 696 695 694 693 692
792 791 791 790 790 789 789 788 788 788 787 787 786 786 785 784 782 781 780 779 777 776 775 774 773 772 771 771 770 770 769 768 766 765 765 763 762 762 761 760 758 757 756 755 755 754 753 752 750 749 746 744 742 740 738 736 734 732 730 727 725 724 723 722 721 720 718 717 715 713 711 710 709 707 706 704 703 701 700 698 697 696 695 694 692 691
793 792 792 791 791 790 790 790 789 789 788 788 787 786 784 783 781 780 779 778 777 776 775 774 773 772 771 770 770 769 768 767 766 765 764 763 762 762 761 760 758 757 756 755 754 753 752 751 750 749 747 745 743 741 739 737 735 733 731 729 726 725 723 722 721 720 718 717 715 713 712 710 709 707 706 705 703 702 700 699 698 697 696 694 693 691
795 794 793 793 792 792 791 791 790 790 789 788 786 785 784 782 780 779 778 777 776 775 774 773 772 771 770 770 769 768 767 766 765 765 764 763 762 761 760 759 758 757 755 755 754 753 751 750 749 748 746 745 743 741 740 738 736 734 733 731 729 726 724 722 721 720 718 716 715 714 712 710 709 708 706 705 704 703 701 700 699 698 696 695 694 692
795 795 795 794 793 793 792 791 791 790 789 788 786 785 784 783 781 780 778 776 775 774 773 772 771 770 770 769 768 767 767 766 765 765 764 763 762 761 760 759 758 756 755 754 753 752 751 750 749 747 746 745 743 741 739 737 736 735 733 732 729 727 724 722 720 720 718 716 715 713 712 711 710 708 707 705 704 703 702 701 700 699 697 696 694 693
796 796 796 795 795 794 793 792 790 789 788 787 786 785 785 784 782 780 779 777 776 775 773 772 771 770 769 768 767 767 766 765 765 764 764 763 761 760 759 758 757 756 755 754 752 751 750 749 748 747 746 745 743 742 740 737 735 734 733 732 730 728 725 722 720 719 718 716 715 714 712 711 710 709 707 706 705 703 702 701 700 699 698 696 695 694
797 797 796 796 795 794 793 792 790 789 788 787 787 786 785 784 783 781 780 778 777 775 774 773 771 770 769 768 767 766 765 765 765 764 763 762 761 760 759 758 757 756 755 754 752 751 750 748 747 747 746 745 743 742 740 738 736 735 733 732 730 729 727 725 722 720 718 716 715 714 713 712 710 709 708 706 705 704 702 701 700 699 698 696 695 694
798 797 796 796 795 794 793 791 790 790 789 788 787 787 786 785 783 782 780 779 777 776 775 773 772 770 769 768 767 766 765 765 764 763 762 762 761 760 759 758 757 756 755 754 753 751 750 748 747 746 745 744 743 742 741 739 737 735 734 732 730 729 727 725 723 720 719 717 716 715 714 712 711 709 708 706 705 704 702 701 700 699 697 696 695 693
798 797 797 796 795 794 793 792 791 790 789 788 788 787 786 785 784 782 781 780 778 777 776 774 773 772 770 770 768 767 766 765 764 763 762 761 760 760 759 758 757 756 755 754 753 752 750 749 748 746 745 744 743 742 741 740 738 736 734 732 730 728 727 725 723 721 720 718 716 715 714 713 711 710 708 707 705 704 703 701 700 699 697 696 695 693
798 798 797 797 795 795 793 792 791 790 789 789 788 787 786 785 784 782 781 780 779 778 776 775 774 773 772 771 770 769 768 766 765 764 762 761 760 760 759 758 757 756 755 754 753 752 750 750 748 747 745 744 743 742 740 740 738 737 735 732 730 729 727 725 724 722 720 719 718 716 715 713 711 710 709 707 706 704 703 701 700 699 697 696 694 693
799 799 798 797 796 795 793 792 791 790 789 789 788 787 786 785 784 783 781 780 779 778 777 775 774 773 773 772 771 770 769 768 766 765 764 763 761 760 759 758 757 756 755 754 753 752 751 750 749 747 746 745 744 742 741 740 738 737 735 733 731 729 728 726 724 723 721 720 719 717 716 714 713 711 710 708 707 705 703 701 700 699 697 696 695 693
800 799 798 797 796 795 794 792 791 790 790 789 788 787 786 785 785 783 782 781 780 779 777 776 775 774 774 773 772 771 770 769 767 766 765 764 763 762 760 759 758 756 755 754 753 752 750 750 749 747 746 745 744 743 742 740 739 737 735 734 732 730 729 727 725 724 722 721 720 718 717 716 715 713 711 710 708 706 704 702 700 699 698 696 695 693
800 799 798 797 796 795 794 793 792 791 790 789 788 787 786 785 785 784 782 781 780 779 778 777 776 775 775 774 773 772 771 769 768 767 766 765 764 763 762 760 759 757 755 754 752 751 750 749 748 747 747 746 746 745 743 741 739 737 735 734 732 731 729 728 726 725 723 722 720 719 718 717 715 714 712 711 709 707 705 703 701 700 698 697 695 694
799 798 797 797 796 795 794 793 792 791 790 790 789 788 786 785 784 783 782 781 780 780 779 778 777 776 776 775 774 773 771 770 769 768 767 766 765 764 763 762 760 759 757 755 754 752 751 750 748 748 747 747 746 745 743 741 739 737 736 735 733 731 730 729 727 726 725 723 722 720 719 717 716 715 713 712 710 709 706 705 703 701 699 697 696 694
Wind_Speed
6 5 3 3 3 3 3 3 3 3 3 4 4 3 3 3 4 5 7 8 9 10 11 12 12 12 10 10 9 9 9 10 12 13 13 14 14 15 15 16 16 17 17 17 18 18 19 19 19 20 20 20 21 21 21 21 21 21 22 22 22 22 22 22 22 22 23 23 23 23 24 24 24 24 24 24 24 24 24 24 25 25 26 26 26 26
6 4 3 2 2 2 2 3 3 4 4 5 4 4 3 4 5 6 6 7 9 10 12 13 12 11 9 9 9 9 10 12 13 14 15 15 15 15 16 16 16 16 16 16 17 18 18 19 19 20 20 20 21 21 21 21 21 21 21 21 21 22 22 22 22 23 23 23 23 24 24 24 24 24 24 24 24 24 24 24 24 25 25 25 26 26
6 4 2 2 2 2 2 3 3 4 5 6 6 6 6 6 7 8 8 9 10 11 13 13 11 10 8 8 9 10 12 13 15 16 16 16 16 15 15 15 15 15 15 16 17 18 18 19 19 20 20 20 20 20 20 20 20 21 21 21 21 22 22 22 23 23 23 23 23 23 23 23 23 23 23 23 23 23 23 24 24 24 25 25 25 25
5 3 1 1 1 2 2 3 4 5 6 7 7 8 8 9 10 11 11 11 11 13 13 13 11 9 8 8 10 11 14 15 17 18 18 18 17 15 14 14 14 15 16 17 17 18 19 19 19 20 20 20 20 20 20 20 20 20 21 21 21 22 22 23 23 23 23 23 23 23 23 22 22 22 22 22 22 22 22 23 23 24 25 25 25 25
4 2 1 1 2 3 3 4 5 6 7 8 9 9 10 11 12 12 12 12 13 14 15 14 12 10 9 9 11 13 15 17 18 20 20 19 17 15 14 14 15 16 17 17 18 18 19 19 20 20 20 20 20 20 20 20 20 20 21 21 22 22 22 23 23 23 23 23 22 22 21 21 21 21 21 22 22 22 22 23 23 24 24 25 25 25
3 1 0 1 2 3 4 5 7 8 9 10 10 11 12 13 14 14 14 14 15 16 17 16 13 11 10 10 12 15 16 18 20 21 21 19 17 15 15 15 16 17 17 18 18 19 19 20 20 20 20 20 20 20 19 20 20 21 21 22 22 23 23 23 23 23 23 23 22 21 21 21 21 21 22 22 22 22 23 23 24 24 24 25 25 25
2 0 0 1 2 3 4 6 8 10 11 12 13 13 13 14 15 15 15 16 17 18 18 17 15 12 11 12 13 16 17 19 21 21 20 18 16 16 16 16 17 18 19 19 19 19 20 20 20 20 20 20 19 19 19 20 20 21 22 22 23 23 23 23 23 23 23 23 22 21 21 21 21 21 22 22 23 23 24 24 24 24 25 25 25 25
2 1 1 2 3 3 4 6 8 10 11 13 14 14 15 17 17 17 17 17 18 19 20 19 17 14 13 13 15 17 19 21 22 22 20 18 17 17 17 18 19 20 20 20 20 20 20 20 20 20 20 19 19 19 20 20 21 22 22 23 23 23 23 23 23 23 23 22 22 21 21 21 21 21 22 22 23 23 24 24 24 24 24 25 25 25
3 3 2 2 4 5 5 5 7 9 11 12 13 14 17 20 21 20 19 19 19 21 22 22 20 17 15 15 16 18 20 21 23 23 21 19 18 18 19 20 21 21 21 21 21 21 20 20 20 20 19 19 19 19 20 21 22 23 23 23 23 23 23 23 22 22 22 22 22 21 21 21 21 21 22 22 23 23 23 24 24 24 24 24 25 25
2 2 2 2 4 5 6 6 7 9 10 11 11 12 16 20 22 22 22 21 21 22 23 23 22 20 18 17 18 20 21 23 23 22 20 18 18 19 20 21 22 22 22 22 22 21 20 20 20 20 18 18 18 20 21 22 23 23 24 23 23 23 23 23 22 22 22 21 21 21 21 22 22 22 22 23 23 23 23 24 24 24 24 24 24 24
3 2 2 3 4 5 6 7 8 9 10 11 10 11 15 19 21 21 21 22 23 24 24 23 22 20 19 19 20 21 23 25 24 22 20 18 18 19 20 21 22 23 23 23 23 22 21 21 20 19 18 17 18 20 21 22 23 24 24 23 23 23 23 22 22 22 22 22 22 22 22 22 23 23 23 23 23 23 23 24 24 24 24 24 24 24
3 2 2 3 3 4 5 6 7 9 10 12 11 12 16 19 20 19 18 19 21 23 24 24 21 18 16 17 20 22 25 26 26 24 22 20 20 21 22 23 24 24 25 25 25 23 22 21 20 19 17 17 19 20 22 23 23 24 24 23 23 23 23 22 22 22 22 22 22 22 22 23 23 23 23 23 23 24 24 24 24 24 24 24 24 24
3 3 3 3 3 5 6 7 8 10 12 13 13 13 16 18 19 19 17 17 19 20 22 23 21 18 15 15 18 22 25 27 27 25 23 22 21 22 23 24 25 26 27 26 26 25 24 23 21 19 17 18 19 21 22 23 23 24 23 23 23 23 22 22 22 22 22 22 22 22 23 23 23 23 23 23 24 24 24 24 24 24 24 24 24 23
3 3 3 3 4 6 8 9 9 10 11 12 13 15 16 17 19 19 19 18 19 20 20 20 20 18 14 14 17 21 24 26 26 25 24 23 22 22 23 24 25 26 27 26 26 26 25 24 22 19 18 18 20 21 22 23 24 24 23 23 22 22 22 22 22 22 22 22 23 23 23 23 23 23 23 23 24 24 24 24 24 24 24 24 23 21
4 4 4 4 4 6 8 9 10 10 11 12 13 15 16 17 18 19 19 18 19 20 20 20 19 16 12 12 16 20 23 24 25 24 24 23 21 21 22 24 25 26 26 25 25 26 25 24 22 19 18 19 20 21 22 23 24 23 23 22 22 22 22 22 22 22 22 22 23 23 23 23 23 23 23 23 24 24 24 24 23 24 24 24 22 20
4 5 5 5 5 6 7 8 9 10 11 12 13 15 17 18 19 19 19 18 18 19 18 18 17 15 12 13 17 20 22 23 23 23 23 23 21 20 21 23 25 25 25 24 25 26 26 24 21 19 18 19 20 21 22 23 23 23 23 22 22 22 22 22 22 22 22 22 23 23 23 23 23 23 23 24 24 24 24 24 24 24 24 22 20 20
4 5 5 6 6 6 7 8 9 10 11 13 14 15 16 17 18 18 18 18 17 16 15 14 11 9 11 15 17 19 22 23 23 22 21 22 21 20 20 22 24 24 24 23 24 25 26 24 21 19 18 19 20 21 22 23 23 23 22 22 22 22 22 22 22 22 22 22 22 23 23 23 23 23 24 24 24 24 23 23 24 24 23 20 19 20
4 4 5 5 6 6 7 9 10 11 12 13 14 15 16 16 17 17 17 16 15 14 14 13 10 8 8 12 16 19 20 21 22 21 20 20 19 20 20 22 23 23 23 23 24 25 25 23 20 18 18 18 19 21 22 23 23 22 22 22 22 22 22 22 22 22 22 22 22 22 23 23 23 23 23 23 23 23 23 23 24 24 22 20 20 21
4 4 5 5 6 7 8 9 9 11 12 13 14 15 16 16 16 16 15 15 14 13 13 12 11 11 11 14 17 19 18 19 20 20 18 18 19 19 20 22 23 22 22 22 24 25 25 22 19 17 17 18 19 20 22 22 22 22 22 22 22 22 22 22 22 22 22 22 22 22 23 23 23 23 23 23 23 22 22 23 24 24 22 21 21 22
4 4 5 6 6 7 8 8 9 10 12 13 14 15 16 17 16 16 15 14 14 13 13 12 12 13 14 17 18 18 17 18 19 18 17 17 17 19 21 23 23 22 21 22 23 25 25 22 19 17 17 17 19 20 22 22 22 22 22 22 22 22 22 22 22 22 21 22 22 22 22 23 23 23 23 22 22 22 22 23 24 24 22 21 22 22
4 5 5 5 6 7 8 8 9 11 12 13 14 15 16 16 16 16 16 15 15 14 14 13 14 16 17 18 18 17 16 17 17 17 16 15 16 18 21 22 22 21 20 21 23 25 25 22 19 17 17 17 18 20 21 22 22 22 21 21 22 22 21 22 22 22 21 21 22 22 23 23 23 22 22 22 22 22 22 23 24 23 22 22 22 22
5 5 5 6 7 8 8 9 10 11 12 13 14 14 15 15 16 16 17 17 17 16 16 16 17 17 16 15 15 15 15 15 15 15 15 13 15 18 21 22 21 20 20 21 23 25 24 22 19 17 16 17 18 20 21 22 21 21 21 21 22 21 21 22 22 22 21 21 22 22 23 23 23 22 22 22 21 21 22 23 23 23 22 21 21 21
5 6 6 7 7 8 9 10 11 11 12 12 13 13 14 14 15 16 17 17 17 17 18 19 19 17 15 14 14 14 13 13 14 14 13 11 13 18 21 21 20 19 19 21 23 25 24 21 18 16 16 17 18 20 21 21 21 21 21 21 21 21 21 21 22 22 22 21 21 21 22 22 22 22 22 21 21 21 22 23 23 22 21 21 21 21
5 6 7 8 9 10 11 11 12 12 12 12 13 13 13 14 15 15 16 16 17 18 19 20 19 17 14 14 14 14 13 12 13 13 11 11 14 17 20 20 20 20 20 22 23 24 23 21 18 16 16 18 20 20 20 21 21 21 21 21 21 21 21 21 22 22 22 22 21 21 21 21 21 21 21 21 21 21 21 22 22 22 21 20 20 20
6 6 7 8 9 10 10 10 10 11 11 12 13 13 13 14 15 15 15 15 16 18 19 20 17 15 13 13 14 14 14 12 11 12 13 13 15 17 18 19 19 20 21 22 23 23 22 20 18 16 16 18 21 21 20 20 20 21 21 21 21 21 21 21 22 22 22 22 21 21 21 21 21 21 21 21 21 21 21 22 22 21 20 20 20 20
6 7 7 7 7 6 6 6 7 7 8 10 11 13 13 14 15 15 14 15 16 18 19 17 14 13 13 13 14 15 15 11 10 12 15 15 16 17 18 19 20 20 21 22 23 22 21 19 17 16 17 19 21 22 21 20 20 21 21 21 21 21 21 21 21 22 22 22 21 21 21 21 21 21 21 21 20 21 21 22 22 21 20 20 21 21
6 6 5 5 4 4 5 6 7 7 7 7 8 10 12 13 14 15 15 16 17 17 17 13 11 12 13 13 15 16 15 10 9 13 18 18 16 15 17 19 21 21 21 22 22 21 18 16 15 16 17 20 22 22 21 20 20 20 21 21 21 21 21 21 21 21 22 22 21 21 21 22 22 21 21 21 20 21 21 22 22 21 20 20 21 22
5 5 5 5 6 7 8 9 10 9 9 7 6 7 10 12 13 15 15 16 16 16 15 11 9 9 10 12 15 16 14 8 9 14 20 19 16 14 17 19 21 21 21 21 21 19 16 14 14 15 18 20 22 22 22 21 21 21 22 22 21 20 20 21 21 21 21 21 21 22 22 22 22 22 22 21 21 21 21 22 22 21 19 20 22 22
5 5 6 7 8 9 10 10 10 10 9 9 9 9 10 11 12 13 14 15 15 15 14 12 11 10 10 13 16 15 10 6 9 17 21 19 16 15 18 19 20 21 21 20 20 18 15 13 14 15 18 20 21 22 22 22 22 23 23 23 22 21 20 21 21 21 21 21 21 22 22 23 23 23 22 22 21 21 22 22 22 20 19 21 22 22
5 5 6 7 8 9 10 10 9 9 9 9 9 9 10 10 10 11 12 13 14 15 15 14 13 13 13 14 13 9 6 7 12 19 21 19 16 16 18 19 19 20 20 18 15 12 12 14 15 16 19 20 21 21 21 22 22 23 24 24 23 22 21 21 21 21 21 21 21 22 22 23 23 23 22 22 22 22 22 23 22 21 20 21 21 21
5 6 7 8 8 9 9 9 8 8 8 8 8 8 8 9 9 10 11 12 14 14 15 15 15 14 13 10 6 3 4 10 16 20 20 19 16 16 18 18 18 19 18 15 9 6 8 13 17 19 20 20 21 21 21 21 22 23 24 24 24 23 23 22 22 22 21 21 21 22 22 23 23 23 22 22 22 22 22 23 22 21 19 20 20 19
7 8 8 9 9 9 9 8 8 8 7 7 7 7 8 9 9 10 11 12 13 14 14 15 15 15 13 9 5 4 7 13 17 19 20 18 17 16 16 16 17 17 16 14 10 7 5 8 15 20 21 20 20 20 20 21 22 23 23 24 24 24 24 23 23 23 22 22 23 23 23 23 23 23 22 22 22 22 22 22 22 21 20 19 19 18
8 8 9 9 9 9 9 9 9 9 8 8 8 8 9 9 10 10 10 11 11 13 14 15 16 16 15 13 10 9 12 15 18 18 19 18 17 15 15 15 16 16 15 14 12 10 8 10 14 18 20 20 19 19 20 21 22 23 23 24 24 24 24 24 23 23 23 23 24 24 24 24 24 23 22 22 22 22 22 22 22 21 20 19 18 17
8 9 9 9 10 11 11 11 11 11 10 10 11 11 11 11 11 10 10 10 11 11 13 14 15 15 15 14 13 13 14 16 17 17 18 18 16 14 15 15 15 15 15 14 13 12 12 13 14 15 16 18 19 19 20 21 22 23 24 23 23 24 24 24 23 23 24 24 24 24 25 25 24 24 23 22 22 22 22 22 21 21 20 19 18 17
8 10 11 12 13 14 14 14 14 13 13 13 14 14 14 13 13 12 11 10 10 11 11 12 13 13 14 14 14 14 15 16 17 16 16 15 14 13 13 13 14 15 14 14 14 13 12 13 14 14 14 16 17 19 20 22 23 24 24 24 23 23 24 23 23 23 23 23 23 24 24 24 24 24 23 23 22 22 22 22 21 20 20 19 18 17
11 13 14 15 16 17 17 18 17 17 17 16 16 16 16 15 14 13 12 11 11 11 10 10 10 10 10 11 12 13 15 15 16 15 14 13 13 13 12 12 14 14 14 13 13 13 12 12 13 13 13 13 14 17 20 23 25 25 25 25 24 24 24 23 23 23 22 22 22 23 23 23 23 23 23 22 22 22 22 22 21 21 20 19 18 17
14 17 18 19 19 19 20 20 20 20 19 19 18 18 18 17 16 15 14 12 12 11 10 9 8 8 8 9 10 11 12 13 13 13 13 13 13 13 13 13 14 15 14 12 12 12 11 11 12 12 12 11 11 14 19 23 25 26 26 25 25 24 23 23 23 22 21 21 22 22 23 23 23 23 23 23 22 22 22 22 22 21 20 20 18 17
17 19 20 20 21 21 21 21 21 20 20 19 19 19 19 18 17 16 15 13 13 12 10 8 7 7 7 8 9 9 10 11 11 11 12 13 14 15 14 15 15 15 14 13 12 12 11 10 9 9 10 11 13 16 19 22 24 25 26 26 25 24 23 23 23 22 21 22 22 23 23 23 23 23 23 23 22 23 23 23 23 22 21 20 20 19
19 20 21 21 21 21 21 21 20 19 18 18 18 19 19 19 18 17 16 14 13 12 10 8 7 6 6 7 7 8 8 9 9 10 10 12 13 14 15 16 16 16 15 14 13 12 11 10 8 8 9 11 14 17 20 21 22 23 25 25 25 24 24 23 23 22 22 22 23 23 23 23 23 22 22 22 22 22 23 23 23 22 21 21 21 21
20 21 22 21 21 21 20 19 18 17 17 17 18 19 20 20 20 19 17 15 14 13 11 9 7 6 5 5 6 6 7 7 8 9 10 11 12 14 15 16 17 17 16 15 14 13 12 12 12 12 12 12 14 16 18 20 21 22 22 22 22 22 24 24 23 22 23 23 23 22 22 22 22 22 21 21 21 21 22 22 21 21 20 20 21 21
22 22 22 22 21 20 19 18 17 16 16 17 18 20 21 22 23 22 20 18 16 15 14 11 9 8 7 7 6 7 7 7 8 9 10 11 12 14 15 16 17 16 16 16 15 14 13 13 14 15 15 15 16 17 18 20 21 21 20 19 20 22 24 23 23 23 23 23 23 22 21 21 21 21 21 21 21 21 21 21 20 20 19 20 20 20
22 22 22 22 22 21 19 18 17 16 17 18 19 20 21 22 22 22 21 20 19 18 17 15 14 12 12 11 11 10 10 10 10 11 11 13 14 16 16 16 16 16 16 16 15 15 14 13 13 14 15 16 16 16 18 20 21 21 19 19 20 22 23 23 24 24 24 24 23 22 21 21 21 21 21 21 20 20 20 19 19 18 19 20 20 20
22 22 22 22 21 20 19 18 18 18 18 19 20 20 21 21 21 20 20 20 19 18 17 16 15 14 14 14 14 14 14 13 13 13 14 15 17 18 18 17 15 15 15 15 16 16 15 14 14 14 15 15 16 16 18 20 21 22 21 21 21 20 18 21 24 25 24 24 23 22 21 21 21 21 20 20 20 20 20 19 19 18 19 20 20 20
20 20 19 19 19 19 19 19 19 20 20 20 20 20 20 20 20 19 19 19 18 17 17 17 15 14 13 14 15 16 16 15 15 15 16 17 18 19 18 16 15 14 14 14 15 16 16 15 15 15 15 15 16 16 17 19 20 21 22 22 21 19 17 19 22 24 24 23 23 22 22 21 21 20 20 19 19 19 19 19 19 19 19 20 20 20
18 17 17 17 18 19 20 20 20 20 20 20 20 20 20 20 19 18 18 18 18 17 17 17 16 14 13 14 15 16 18 18 18 18 18 19 20 20 18 17 15 14 13 13 13 14 14 15 16 16 16 16 16 16 17 18 19 21 22 23 22 21 21 21 22 22 22 22 22 22 22 22 21 20 19 19 19 19 19 19 19 20 20 20 21 21
17 17 17 18 19 20 20 21 21 21 21 21 20 20 20 20 19 18 17 17 17 17 16 17 16 15 14 13 14 15 17 19 20 21 21 21 22 21 20 17 15 14 14 13 13 12 12 13 14 15 16 16 16 17 18 19 19 20 22 23 23 22 22 22 22 22 22 22 21 22 22 22 21 20 19 19 19 19 19 19 20 20 20 21 21 21
17 18 18 18 19 20 20 21 21 22 21 21 20 20 20 19 19 18 17 17 17 16 15 16 16 16 15 14 14 14 15 17 19 20 21 22 23 23 22 19 16 15 14 14 13 13 12 12 12 13 14 14 15 17 19 21 21 21 21 22 22 21 21 21 22 22 22 22 21 22 22 22 21 20 19 19 19 18 19 20 21 21 21 22 22 22
16 17 18 18 19 20 21 21 21 21 21 20 20 20 19 18 18 17 17 16 16 16 15 15 15 15 15 15 14 14 14 15 17 19 20 21 22 23 24 22 19 17 15 15 14 14 13 12 11 11 12 12 13 16 19 22 22 22 22 21 21 20 19 20 21 22 22 22 22 22 21 20 20 19 19 19 18 18 20 22 23 23 24 24 24 24
15 16 17 18 19 19 20 21 21 21 20 20 20 19 18 18 16 16 16 15 16 16 16 15 15 14 13 14 14 14 14 15 17 18 19 20 21 22 23 23 23 21 18 17 17 17 16 14 12 11 11 11 13 15 19 21 22 22 22 21 20 19 19 20 21 22 22 22 22 21 20 19 19 19 19 18 18 18 20 22 24 25 25 25 25 25
14 15 15 16 18 19 19 20 20 20 19 19 19 18 18 17 16 15 14 14 15 15 15 15 14 13 12 12 13 14 15 16 17 18 18 19 19 20 21 22 23 23 22 21 21 21 19 17 15 13 11 11 13 15 18 20 22 22 22 21 20 19 19 19 20 21 21 21 21 20 20 19 19 19 19 18 18 19 20 22 24 25 25 26 26 25
13 14 15 16 17 18 19 19 19 19 18 18 18 17 17 17 16 15 14 15 15 15 15 14 14 12 11 12 13 14 15 15 16 17 17 18 19 19 19 20 20 20 20 20 20 19 18 17 15 14 14 14 15 16 18 19 21 21 20 20 20 20 19 19 20 21 20 20 19 19 19 20 20 20 19 18 18 18 19 20 22 24 25 25 25 25
Wind_Direction
207 215 231 252 276 299 312 308 313 325 329 328 321 312 304 315 328 333 336 339 342 344 346 345 345 344 344 345 349 354 360 4 1 354 349 346 343 342 340 339 338 337 336 336 336 336 336 336 335 335 335 335 335 335 335 334 334 333 333 332 331 330 329 328 327 326 324 323 322 321 320 319 319 319 318 318 318 319 319 319 318 317 316 315 314 315
203 213 231 266 299 323 337 328 330 340 344 344 343 339 336 340 345 348 350 352 353 354 353 352 351 350 353 357 1 5 7 8 4 357 353 350 347 344 342 341 340 340 341 341 341 340 339 338 337 336 336 336 336 336 336 336 336 335 335 335 334 333 331 330 328 327 326 325 323 322 321 321 320 320 319 320 320 320 319 318 318 317 317 316 317 319
198 207 231 287 318 343 5 354 350 351 354 356 356 353 353 355 358 359 359 1 2 2 1 360 358 358 2 6 7 8 9 8 4 359 355 353 350 347 345 345 346 347 348 347 345 343 341 339 339 338 338 338 339 338 338 338 338 338 337 336 335 334 333 331 330 329 328 326 325 324 323 323 322 322 321 322 322 321 320 319 319 319 319 320 321 321
194 198 231 309 349 5 8 5 3 2 1 2 360 358 358 360 2 2 2 2 4 6 8 8 7 6 8 9 8 8 8 6 2 359 356 354 353 352 352 353 354 355 354 351 348 344 342 341 340 340 340 340 341 341 341 341 340 340 339 338 337 335 334 333 332 331 329 328 327 327 327 326 326 326 326 325 324 324 323 322 322 322 322 322 322 321
190 198 242 21 45 38 17 6 3 2 1 2 2 1 360 360 1 2 2 2 4 7 11 14 15 14 12 8 6 6 5 3 0 358 357 356 357 358 360 2 1 359 357 354 349 346 344 342 342 342 342 343 343 343 344 343 343 342 341 340 338 337 336 336 335 334 332 331 331 331 331 331 331 331 331 329 329 328 327 327 326 325 325 324 323 322
179 194 305 25 43 42 27 14 7 3 1 1 2 1 359 358 358 360 2 3 5 7 10 14 18 18 14 9 5 4 3 1 359 358 357 358 0 3 5 6 5 3 359 355 350 347 345 344 344 344 345 345 346 346 346 346 345 344 343 342 341 340 339 339 338 337 337 337 337 336 336 336 336 336 335 334 334 333 332 331 330 328 327 327 327 327
155 142 7 39 39 36 29 19 11 5 1 0 360 359 356 355 356 359 2 3 4 5 7 10 15 19 17 10 5 2 360 358 357 357 359 1 3 6 7 7 6 4 1 356 352 349 347 346 346 346 347 347 348 349 349 348 347 346 345 344 343 342 342 341 340 340 341 342 342 342 342 341 340 339 338 338 338 337 336 334 333 331 330 330 331 332
126 110 76 57 49 40 35 22 13 7 2 1 359 357 354 353 354 357 1 3 3 3 4 6 11 16 17 10 4 359 357 355 355 357 360 3 4 5 6 6 6 5 1 357 354 351 349 348 348 348 349 350 351 351 351 350 349 348 346 345 345 344 344 344 342 342 343 343 343 344 344 343 341 340 339 338 338 337 336 335 333 332 332 332 333 333
120 108 81 49 38 37 36 25 13 8 5 3 0 358 355 354 354 355 358 0 1 2 3 4 6 9 12 9 2 357 353 351 352 356 1 5 5 5 5 5 5 4 1 358 355 353 350 350 349 350 352 354 354 354 353 352 350 349 347 347 346 345 345 344 343 342 342 343 343 343 344 343 342 341 340 338 337 336 335 334 333 333 333 333 332 330
132 110 83 48 30 28 27 19 11 7 7 4 1 360 359 358 356 354 354 355 356 358 0 2 2 3 5 5 1 354 349 347 350 356 3 6 6 4 3 3 3 2 359 357 356 355 353 351 351 353 356 359 359 356 354 352 350 349 348 347 347 347 346 344 343 342 342 343 344 344 343 343 343 342 341 339 338 336 335 334 333 333 333 332 331 328
126 114 85 57 38 26 20 16 11 7 5 2 1 1 4 3 0 356 352 349 350 353 356 1 2 1 360 0 357 352 347 345 348 355 5 9 8 4 3 2 1 360 358 357 357 356 355 353 354 357 2 5 3 358 354 352 350 349 348 348 348 347 347 346 345 345 346 346 346 346 345 343 342 341 341 340 338 337 335 334 334 334 333 332 330 327
108 94 77 60 42 26 18 14 10 6 4 3 2 1 2 3 2 359 352 346 345 347 349 355 1 6 4 359 354 350 346 344 345 351 1 9 9 5 2 0 359 358 357 357 358 358 356 355 358 2 7 8 5 359 353 351 350 350 349 349 348 348 347 347 347 347 347 347 347 347 346 344 342 341 340 339 337 336 336 336 336 336 334 332 329 327
97 82 73 59 42 28 18 15 12 10 8 8 5 359 353 357 359 358 354 349 347 346 346 349 355 3 9 2 354 348 344 342 343 348 357 5 7 4 360 357 355 355 355 357 358 358 357 357 360 5 8 9 4 358 352 351 350 350 350 349 349 348 348 348 348 348 347 347 346 345 344 343 342 341 340 338 338 338 338 338 338 336 334 331 329 330
95 89 84 70 47 31 22 18 15 12 9 6 3 358 354 356 357 357 354 350 349 349 349 348 350 357 5 360 353 348 344 341 342 345 352 0 5 3 358 354 352 352 354 355 357 357 356 357 360 4 6 6 1 355 351 350 351 350 350 349 349 348 347 347 348 347 346 345 345 344 343 342 342 341 340 339 339 340 340 340 339 336 333 330 331 336
90 84 78 70 51 35 25 19 15 10 7 3 359 357 356 357 358 357 355 349 348 349 350 349 351 356 1 355 351 349 344 342 342 344 347 354 2 4 357 351 349 351 353 354 355 355 356 357 359 1 3 3 358 352 349 350 351 350 350 349 349 348 347 346 346 346 345 345 344 344 344 343 342 341 341 341 341 342 342 342 339 335 332 332 337 345
82 72 64 62 51 38 27 19 12 6 3 1 359 358 358 358 358 357 355 350 348 349 351 351 351 352 352 351 351 350 346 344 343 342 341 344 354 2 356 349 347 349 352 353 354 353 355 357 358 360 0 357 352 349 349 350 350 350 349 349 348 348 347 347 346 346 345 345 345 344 344 343 342 342 342 343 343 344 343 341 337 334 333 337 346 352
80 66 58 54 46 36 27 18 12 7 2 1 0 0 360 358 357 355 353 350 349 350 352 354 352 345 340 340 345 349 348 345 342 339 337 337 346 355 354 348 346 348 349 351 352 352 353 354 356 358 357 352 348 347 348 349 350 350 349 348 348 348 348 348 348 347 346 346 345 345 344 343 343 343 344 344 344 344 343 340 335 333 335 345 354 355
78 62 51 45 39 31 24 18 12 6 2 1 359 359 358 357 355 353 351 350 348 347 347 348 345 335 328 327 334 343 350 344 339 335 333 332 340 349 351 348 346 347 348 349 350 350 351 352 354 355 353 348 346 346 348 349 349 349 348 348 348 348 348 348 347 347 346 346 345 345 344 343 343 344 344 345 344 343 342 338 334 334 339 350 357 355
78 58 46 39 32 28 24 19 13 7 3 0 358 356 355 354 352 351 348 347 345 343 340 337 332 326 319 313 325 340 349 344 338 333 329 328 334 344 349 347 346 347 347 347 347 348 349 351 353 353 351 347 344 345 347 348 348 348 348 348 348 348 348 348 347 347 346 346 345 345 344 344 344 344 344 344 344 343 341 338 335 336 342 351 355 353
73 58 44 35 29 26 24 19 13 8 3 359 356 354 351 350 348 347 344 342 341 338 336 331 325 321 317 315 325 340 350 345 338 333 328 326 331 340 346 347 346 345 344 344 345 346 346 349 351 352 351 348 346 346 346 347 347 347 347 348 348 349 348 348 347 347 346 346 345 344 344 344 344 345 344 343 343 342 341 338 337 339 345 349 350 350
67 55 43 34 29 27 23 18 13 7 2 358 355 352 349 347 345 343 341 340 338 336 334 329 323 320 319 318 327 342 350 344 338 333 329 326 330 338 344 346 345 343 341 341 342 344 345 347 350 351 351 347 345 345 346 346 347 347 347 348 348 349 348 348 347 346 346 345 344 344 344 344 345 345 344 343 343 342 341 339 339 342 347 349 349 348
63 55 42 33 28 25 19 15 11 5 360 356 352 349 346 344 341 338 338 338 337 334 330 324 322 324 327 327 336 347 350 344 339 335 331 326 328 335 342 345 344 342 339 339 339 341 344 346 349 351 350 345 343 343 345 346 346 347 347 348 348 348 348 347 347 346 346 345 344 344 344 345 345 345 344 343 343 342 341 340 341 344 348 348 348 346
56 48 38 29 23 18 14 10 7 1 356 351 348 345 343 341 337 335 335 335 334 332 329 327 329 334 339 341 345 349 349 344 341 339 335 326 326 332 340 344 344 341 338 337 338 339 341 344 348 351 350 347 345 343 344 345 346 347 347 348 348 348 347 347 346 346 345 344 344 344 344 344 344 344 344 343 343 343 342 341 342 345 347 347 347 346
47 39 31 24 18 13 8 5 0 354 348 344 342 341 339 335 333 331 330 331 331 331 331 332 336 340 345 347 348 349 348 344 343 343 341 331 327 331 338 343 343 340 336 335 336 336 338 341 346 351 350 348 346 344 345 345 346 347 347 348 348 348 347 346 346 345 344 344 344 344 344 344 344 344 343 343 343 343 343 342 343 345 346 347 346 345
38 31 25 19 14 8 2 357 352 345 340 340 340 339 335 330 327 326 327 329 332 335 337 339 340 342 344 344 345 346 348 346 344 345 345 337 330 331 337 343 343 339 334 334 336 337 336 338 343 348 348 346 345 345 345 345 346 346 347 348 348 347 346 346 345 344 343 343 344 344 344 344 344 344 344 344 344 343 343 343 344 345 345 345 344 344
34 31 27 22 13 2 349 340 335 335 338 342 343 339 332 326 324 325 329 335 339 342 344 345 343 339 340 341 341 341 345 346 344 345 347 342 335 332 337 342 343 339 334 334 335 336 335 336 340 346 346 344 345 346 346 345 345 345 346 347 347 347 346 345 344 343 342 342 343 345 345 345 344 344 344 344 344 344 344 343 344 345 345 344 344 345
35 34 32 23 8 353 342 337 336 337 342 349 351 342 328 324 326 331 339 343 345 347 348 348 343 337 337 339 337 336 340 344 346 347 348 344 338 334 336 341 341 339 336 334 335 335 334 335 339 343 344 343 344 345 346 346 345 345 346 346 346 346 346 345 344 343 342 341 342 344 345 345 345 345 345 345 345 345 344 344 345 345 345 345 345 346
30 24 17 9 0 354 350 348 346 344 342 345 344 333 325 327 335 342 346 346 347 348 348 346 340 334 331 330 327 328 337 344 351 349 347 346 340 333 335 339 341 341 338 335 334 335 337 338 341 342 342 342 342 343 345 345 346 346 347 348 349 348 347 345 344 343 342 341 342 343 344 344 344 345 345 345 345 345 345 345 345 345 345 345 346 347
25 16 9 2 357 354 351 348 346 345 343 341 335 330 330 336 344 348 346 346 346 346 343 340 336 330 324 321 321 324 335 352 356 350 346 345 340 333 335 339 342 343 342 338 336 338 340 341 342 341 341 341 341 342 344 345 346 347 349 350 351 350 348 345 344 343 343 342 341 341 343 343 344 344 344 345 345 345 345 346 346 346 345 345 346 346
23 14 7 2 358 355 352 350 348 347 345 343 342 341 339 343 348 351 348 348 348 345 340 335 331 328 326 326 326 327 335 353 353 348 346 343 338 333 336 338 341 344 346 343 341 339 338 339 339 340 339 338 339 340 343 344 346 347 349 350 351 350 349 346 344 343 343 342 341 341 342 343 344 344 344 344 344 344 346 347 347 346 345 346 346 346
18 13 9 6 3 360 357 356 355 353 351 348 347 346 346 349 353 354 353 352 350 346 340 334 329 327 328 331 334 325 314 333 343 346 343 341 335 332 335 336 338 343 348 348 346 334 330 333 335 336 336 336 338 340 343 344 345 347 347 348 348 349 348 346 345 343 343 343 342 342 343 344 344 344 344 343 343 343 345 347 348 348 347 347 346 346
15 13 13 12 10 9 8 7 6 5 1 358 356 356 358 0 1 360 358 355 351 347 342 336 331 327 325 321 306 283 296 320 335 344 341 338 333 331 334 335 336 340 346 349 343 329 318 323 328 330 332 333 335 338 342 344 346 346 347 346 346 346 347 346 345 344 343 343 343 344 344 345 345 344 344 343 342 343 344 347 350 350 349 348 347 346
15 15 16 18 18 18 18 18 18 16 12 10 9 9 10 10 9 5 2 357 353 349 344 339 334 329 324 316 305 296 303 319 334 343 341 337 333 332 334 336 337 340 344 346 340 329 316 314 320 324 327 329 331 335 340 344 346 347 347 345 344 344 345 345 344 344 343 343 343 344 345 345 346 345 345 345 343 343 345 348 351 352 351 350 349 348
16 16 19 21 23 22 22 22 22 22 20 18 16 15 14 13 12 9 5 1 356 351 348 343 338 331 325 319 312 307 310 325 339 347 345 340 336 334 337 340 342 344 345 344 340 333 323 319 320 323 325 328 330 334 340 343 345 346 346 345 343 342 343 343 343 342 342 342 342 342 343 344 344 344 345 345 344 343 345 349 352 354 354 353 351 349
19 19 21 22 22 22 21 20 20 21 21 20 18 15 14 12 10 8 6 3 359 354 350 347 342 337 329 320 313 312 317 333 346 353 353 349 346 345 346 347 350 349 347 344 341 336 329 325 324 324 324 329 332 336 341 343 344 345 346 346 344 343 342 342 341 340 340 340 340 340 341 342 342 343 344 344 344 343 345 348 351 354 356 355 354 353
25 26 25 24 23 22 21 19 18 17 16 16 14 13 11 10 8 6 4 2 360 356 353 350 348 345 340 331 322 318 323 337 350 358 1 2 3 2 359 356 355 354 350 344 340 335 330 326 325 326 327 329 332 336 341 343 345 345 346 346 345 344 343 343 342 340 339 338 338 338 339 340 340 341 343 344 344 346 349 351 353 355 356 356 356 355
32 31 29 26 24 22 20 19 18 15 13 11 9 8 7 6 6 5 4 2 0 358 357 358 360 0 359 354 347 341 342 349 357 4 8 9 9 7 5 359 356 355 352 345 338 332 328 325 325 327 328 329 330 333 337 340 342 344 344 343 342 342 342 343 342 340 338 337 336 337 338 339 340 340 342 343 345 348 352 355 356 357 357 357 356 355
35 33 30 27 25 23 20 19 17 14 11 8 6 4 3 3 4 5 4 4 3 1 2 7 16 23 23 18 12 6 3 3 6 9 11 10 7 4 2 357 355 354 352 345 337 331 327 324 323 325 326 325 326 328 331 335 338 339 339 339 340 341 342 342 342 340 338 336 336 337 338 339 340 341 342 344 346 349 351 354 355 356 356 355 354 353
35 32 30 27 25 24 21 19 16 13 10 7 4 1 0 1 3 5 7 6 6 7 10 15 25 34 37 33 25 18 11 8 7 8 8 8 5 2 358 354 352 351 350 347 342 334 326 318 314 313 316 318 322 325 330 334 335 335 336 337 339 341 341 341 340 338 337 336 336 336 337 340 341 342 343 345 346 347 348 350 352 353 354 354 353 352
32 31 29 28 26 25 23 20 15 11 8 6 3 2 1 0 1 4 7 8 10 12 16 23 34 41 40 33 25 17 9 5 5 6 7 7 6 2 358 354 352 350 349 347 344 338 330 319 311 307 306 309 313 320 326 331 332 333 335 336 337 338 338 337 337 337 337 337 337 337 337 340 342 344 344 346 347 347 349 349 351 353 354 354 353 352
31 29 27 26 24 22 21 18 14 11 9 7 6 5 4 2 1 1 2 6 9 12 15 23 32 40 45 46 39 29 22 20 20 19 16 14 10 6 1 358 355 352 349 347 345 342 336 326 319 315 314 312 315 319 323 328 333 335 335 333 331 331 332 334 336 337 338 339 339 339 339 341 343 345 346 347 349 351 354 353 354 355 355 356 355 354
30 27 24 22 19 16 14 12 11 10 10 10 11 10 7 4 1 359 359 2 5 9 13 17 21 26 30 40 46 45 41 38 35 31 26 20 14 9 5 2 360 357 352 348 346 345 342 336 329 325 324 323 321 321 325 331 336 338 337 333 331 331 333 336 338 339 338 339 340 341 342 343 344 345 347 348 351 354 358 359 358 357 355 356 357 359
29 25 22 18 13 9 6 7 9 12 12 13 11 9 7 5 3 0 359 1 3 5 8 12 15 18 19 23 30 38 41 41 39 35 29 23 17 12 9 7 6 3 357 351 347 346 348 347 341 337 336 334 328 324 325 330 336 339 340 339 337 336 334 334 336 338 339 340 341 343 344 345 346 347 349 350 352 355 359 360 359 357 356 355 357 359
28 25 21 16 9 3 2 6 10 12 13 12 9 7 6 6 4 3 1 3 4 6 8 11 15 18 18 16 16 21 27 34 37 35 31 26 21 17 14 13 13 11 5 357 350 347 348 349 349 349 348 343 336 331 331 333 336 339 341 342 341 338 331 330 332 335 338 341 344 347 349 350 351 351 353 354 355 357 358 359 359 358 356 355 355 356
28 25 20 13 6 3 5 7 10 11 12 11 8 6 5 5 6 5 4 6 7 10 13 15 17 18 17 15 12 10 12 19 25 28 29 28 25 23 21 20 18 16 12 7 0 353 348 345 347 351 353 349 344 340 337 336 337 339 341 343 342 339 336 335 336 338 339 342 347 351 355 357 356 356 355 356 357 358 358 359 358 357 355 354 354 353
27 22 16 9 5 5 8 8 9 9 10 10 8 5 4 5 6 7 7 9 11 12 15 21 23 23 19 15 12 9 7 8 11 15 19 22 24 25 26 26 24 20 16 14 11 7 360 352 350 350 350 349 349 348 346 342 340 339 339 341 340 339 340 342 344 345 345 347 351 356 1 3 2 0 359 357 357 357 359 0 360 358 356 354 353 352
24 18 12 6 4 5 7 8 8 8 8 7 5 4 4 5 5 6 9 13 14 15 17 23 26 27 25 21 16 11 7 4 4 6 9 12 16 19 22 26 27 25 22 20 19 17 13 7 1 355 350 347 346 346 346 345 343 340 338 338 339 340 342 345 347 350 351 354 358 3 7 7 5 3 1 359 357 357 358 0 1 1 358 356 355 354
21 14 8 5 4 5 6 7 7 6 4 2 2 3 5 6 6 7 10 14 17 18 18 21 23 25 25 24 21 16 10 5 4 4 5 6 9 12 14 17 21 25 28 29 29 27 24 19 12 4 357 350 344 341 341 342 342 341 339 339 340 341 344 348 351 354 356 359 5 9 10 9 6 3 360 358 357 356 355 357 0 2 2 2 1 1
19 13 8 5 5 5 5 5 5 4 1 359 358 359 3 7 9 11 14 18 21 22 21 22 22 23 22 21 18 16 12 9 7 6 5 5 5 6 7 9 12 17 22 28 30 31 31 29 24 15 6 357 348 342 339 340 342 343 344 344 345 347 350 353 356 357 359 2 7 10 11 9 7 4 1 358 355 353 352 355 358 2 5 8 10 10
18 12 9 7 6 5 5 4 3 2 359 357 355 356 359 5 10 15 19 23 26 26 26 26 26 24 21 17 14 12 9 7 6 5 4 3 3 2 2 3 5 7 11 16 19 21 22 22 23 24 19 7 355 348 343 342 343 346 348 350 352 354 357 359 360 0 1 3 6 7 7 6 5 5 3 359 355 353 353 354 357 1 6 12 16 18
16 12 10 8 6 5 4 3 2 1 358 356 355 356 359 3 8 14 21 26 27 27 28 30 30 27 21 15 11 10 9 6 3 1 359 360 360 359 358 1 4 5 6 7 9 9 9 9 12 15 15 15 9 1 354 349 347 349 351 355 357 360 2 3 4 4 4 5 5 5 5 4 3 2 1 358 355 352 352 351 353 357 4 11 16 18